Regional Weather Roundup
Issued by NWS Pendleton, OR

Home | Current Version | Previous Version | Text Only | Print | Product List | Glossary On
Versions: 1 2 3 4 5 6 7 8 9 10 11 12 13 14 15 16 17 18 19 20 21 22 23 24 25 26 27 28 29 30 31 32 33 34 35 36 37 38 39 40 41 42 43 44 45 46 47 48 49 50
000
ASUS46 KPDT 290304
RWRPDT
PENDLETON REGIONAL WEATHER ROUNDUP
NATIONAL WEATHER SERVICE PENDLETON OREGON
800 PM PDT FRI APR 28 2017

NOTE: FAIR INDICATES FEW OR NO CLOUDS BELOW 12,000 FEET WITH NO
SIGNIFICANT WEATHER AND/OR OBSTRUCTIONS TO VISIBILITY.

# INDICATES UNOFFICIAL STATION AND DATA

WAZ520-290410-
EAST SLOPES OF WASHINGTON CASCADES

CITY            SKY/WX      TMP DP  RH  WIND    PRES   REMARKS
#CLE ELUM HS    N/A         46  34  63  W5      30.19R
#CLE ELUM LAKE  N/A         42  34  73  CALM    30.27R
#GLENWOOD       N/A         48  36  63  CALM    30.25R
#MANASTASH CYN  N/A         55  55  100 CALM    30.17R
#NELSON 3SW     N/A         41  34  76  CALM    30.50R
#NILE           N/A         47  32  56  W5      29.52R
#TEANAWAY 4NE   N/A         47  37  68  CALM    N/A
#TROUT LAKE 1NE N/A         48  33  56  W9      30.26S
#TROUT LAKE 1E  N/A         48  33  56  SW2     30.27S
$$

WAZ521-290410-
SIMCOE HIGHLANDS

CITY            SKY/WX      TMP DP  RH  WIND    PRES   REMARKS
#BICKLETON HS   N/A         48  37  65  SW1     29.84S
#CENTERVILLE 1SWN/A         48  39  71  W8      30.21R
#GOLDENDALE 1NE N/A         51  26  37  SW3     N/A
#GOLDENDALE 4W  N/A         51  13  21  W9      30.26R
#GOODNOE HILLS  N/A         53  39  59  NW14    N/A
#LYLE 6NE       N/A         50  40  68  SW9     30.23R
#PITT 4SE       N/A         46  38  73  SW8     30.29S
$$

WAZ026-290410-
KITTITAS VALLEY

CITY            SKY/WX      TMP DP  RH  WIND    PRES   REMARKS
ELLENSBURG AP   PTCLDY      50  33  52  NW20G28 30.22R
#ELLENSBURG CWU N/A         52  33  48  NW14    30.16R
#ELLENSBURG 3NE N/A         49  35  58  N10     28.28R
#ELLENSBURG 13S N/A         54  31  41  NE6     N/A
#KITTITAS 4N    N/A         49  35  58  W10     30.20R
#KITTITAS 3S    N/A         51  34  52  NW13    30.20R
#THORP 6N       N/A         45  34  65  W22G32  30.27R WCI 37
$$

WAZ027-290410-
YAKIMA VALLEY

CITY            SKY/WX      TMP DP  RH  WIND    PRES   REMARKS
SUNNYSIDE AP    PTCLDY      59  31  34  E3      30.18R
YAKIMA AIRPORT  PTCLDY      59  33  37  N13     30.20R
YAKIMA-VAGABOND PTCLDY      55  31  40  N9      30.19R
#DONALD 2NE     N/A         58   2  10  N8      29.03R
#GRANDVIEW      N/A         59  25  27  CALM    30.20R
#MABTON         N/A         63  33  32  CALM    30.17R
#MOXEE 2E       N/A         56   0  10  NW5     30.09R
#NACHES 2SW     N/A         52  34  50  W14     30.19S
#TERRACE HTS    N/A         56  35  45  NW2     30.15S
#TOPPENISH      N/A         62  36  38  N2      30.10R
#WEST VALLEY    N/A         56  34  43  NW6     30.17R
#W YAKIMA       N/A         55  34  45  CALM    30.20R
#WHITE SWAN 5E  N/A         59  38  45  SW1     30.19R
#WILEY CITY 3W  N/A         55  30  38  CALM    30.16R
$$

WAZ028-290410-
LOWER COLUMBIA BASIN...WASHINGTON

CITY            SKY/WX      TMP DP  RH  WIND    PRES   REMARKS
PASCO           PTCLDY      61  31  32  S9      30.20R
PROSSER AWOS    N/A         59  39  47  CALM    30.21S
RICHLAND AWOS   PTCLDY      60  35  39  S9      30.19R
#BENTON CITY    N/A         59  34  39  S13     30.10R
#CONNELL 5N     N/A         55  38  53  SW2     30.18R
#CONNELL 5NW    N/A         56  37  49  SW5     30.14R
#ELTOPIA 6NW    N/A         56  40  55  CALM    29.15R
#KAHLOTUS       N/A         57  36  45  W15G24  30.19R
#KENNEWICK 3S   N/A         56  37  49  SE2     30.21R
#PATERSON       N/A         58  37  45  N3      30.19R
#SAGEMOOR 2W    N/A         55  40  57  SW3     30.05R
#TOUCHET 2S     N/A         51  41  68  SW3     30.19R
#WEST PASCO     N/A         62  37  39  S2      30.19R
$$

WAZ029-290410-
FOOTHILLS OF THE BLUES...WASHINGTON

CITY            SKY/WX      TMP DP  RH  WIND    PRES   REMARKS
WALLA WALLA AP  CLEAR       54  37  52  S6      30.21R
#CLYDE 6NW      N/A         55  36  49  SW6     30.19R
#DAYTON SCHOOL  N/A         53  31  43  SE2     30.22R
#LOWDEN 2SE     N/A         58  40  51  CALM    30.17R
#PLEASANT VIEW 1N/A         51  37  59  SW6     30.24R
#PRESCOTT       N/A         55  39  55  CALM    30.20R
#WHITMAN COLLEGEN/A         58  36  44  CALM    30.27R
#WAITSBURG 5S   N/A         50  38  63  CALM    30.33R
#WAITSBURG 8N   N/A         50  N/A N/A S7      30.00R
#WALLA WALLA 5E N/A         54  42  64  SE2     N/A
#WHITMAN MISSIONN/A         61  41  48  CALM    30.22R
$$

WAZ030-290410-
BLUE MOUNTAINS...WASHINGTON

CITY            SKY/WX      TMP DP  RH  WIND    PRES   REMARKS
#DIXIE 5SE      N/A         47  34  60  W6      30.14R
$$

ORZ009-041-WAZ024-290410-
COLUMBIA RIVER GORGE

CITY            SKY/WX      TMP DP  RH  WIND    PRES   REMARKS
THE DALLES AP   CLEAR       57  37  47  W15     30.24S
#ARLINGTON AIRPON/A         55  36  49  W9      30.24R
#CELILO DOT     N/A         59  34  39  SW6     N/A
#LYLE           N/A         57  42  57  NW13    30.27R
#MOSIER 1S      N/A         53  25  33  CALM    30.24S
#MURDOCK        N/A         57  40  53  NW13    30.21R
#RUFUS DOT      N/A         59  39  47  W16     N/A
#SMITHVILLE     N/A         58  40  51  W13     30.18F

$$

ORZ510-290410-
NORTH CENTRAL OREGON

CITY            SKY/WX      TMP DP  RH  WIND    PRES   REMARKS
#ANTELOPE       N/A         50  33  52  CALM    30.16R
#CHENOWITH 1W   N/A         49  36  61  W23     N/A    WCI 42
#COW CYN RST AREN/A         50  30  46  W3      N/A
#DUFUR          N/A         51  38  61  W2      30.22S
#DUFUR 9E       N/A         48  37  65  W8      30.32S
#GRASS VALLEY 1SN/A         48  35  60  NW8     30.36R
#KENT DOT       N/A         48  25  40  N8      N/A
#MAUPIN SCHOOL  N/A         55  41  59  W5      30.28R
#MORO SCHOOL    N/A         50  40  68  W13     30.29S
#SHANIKO 5WSW   N/A         48  22  35  N9      N/A
#SHANIKO 4NW    N/A         45  31  58  NW8     30.22S
#TYGH VALLEY 2NEN/A         53  34  48  W5      30.24R
#WAPANITIA AIRPON/A         48  37  65  W5      30.28R
#WASCO DOT      N/A         54  32  43  W8      N/A
#WASCO 5NE      N/A         50  37  61  W6      30.23R
$$

ORZ511-290410-
CENTRAL OREGON

CITY            SKY/WX      TMP DP  RH  WIND    PRES   REMARKS
BEND AIRPORT    CLEAR       48  27  44  N5      30.23R
MADRAS AIRPORT  CLEAR       45  32  60  NW9     30.26R
PRINEVILLE AP   CLEAR       48  28  46  NW7     30.22R
REDMOND AIRPORT CLEAR       49  26  40  N6      30.23R
#ASHWOOD SCHOOL N/A         50  34  54  W5      30.17R
#BEND 1SW       N/A         45  31  58  CALM    N/A
#BEND-AWBREY    N/A         49  32  52  CALM    30.28R
#BEND-KIM LN    N/A         47  31  53  N3      30.21R
#CULVER         N/A         47  32  56  VRB2    30.19S
#CULVER 8W      N/A         48  32  54  CALM    30.22R
#LAKE BILLY CHINN/A         47  N/A N/A NE6     30.28R
#MADRAS 4S      N/A         48  10  21  N6      30.31R
#POWELL BUTTE   N/A         48  32  54  CALM    30.16R
#PRINEVILLE     N/A         52  28  39  NW2     30.33R
#PRINEVILLE 3N  N/A         48  34  58  NW5     30.25R
#WARM SPRINGS   N/A         50  34  54  CALM    30.20R

$$


ORZ509-290410-
EAST SLOPES OF OREGON CASCADES

CITY            SKY/WX      TMP DP  RH  WIND    PRES   REMARKS
SISTERS AWOS    N/A         48  30  49  W9      30.19R
#BLUE BOX PASS  N/A         35  N/A N/A N1      N/A
#CAMP SHERMAN   N/A         45  31  58  CALM    30.35F
#LA PINE 4NW    N/A         45  31  58  CALM    30.28S
#LAVA BUTTE DOT N/A         44  21  40  NW1     N/A
#SISTERS 3N     N/A         45  25  45  CALM    30.20S
#SUNRIVER       N/A         46  29  51  N1      30.28R
#TUMALO 3W      N/A         46  28  49  N5      30.15S
#WANOGA BUTTE D N/A         37  24  59  NE3     N/A

$$

ORZ044-290410-
LOWER COLUMBIA BASIN...OREGON

CITY            SKY/WX      TMP DP  RH  WIND    PRES   REMARKS
HERMISTON       PTCLDY      57  36  45  SW5     30.20R
#BOARDMAN SCHOOLN/A         60  36  41  SW7     30.19R
#BOARDMAN 8SW   N/A         56  38  51  W3      30.21R
#ECHO 8SW       N/A         55  38  53  W1      30.22R
#I-84 EX 198 DOTN/A         59  32  36  E3      N/A
#IONE SCHOOL    N/A         56  34  43  W5      30.23S
#UMATILLA       N/A         61  36  39  CALM    30.12R
$$

ORZ507-290410-
NORTHERN FOOTHILLS OF THE BLUES

CITY            SKY/WX      TMP DP  RH  WIND    PRES   REMARKS
PENDLETON AIRPT CLEAR       54  34  47  NW3     30.21R
#ADAMS 3WNW     N/A         54  42  64  CALM    30.22R
#ATHENA         N/A         54  37  52  CALM    30.26R
#CAYUSE         N/A         57  35  43  CALM    30.22R
#HELIX SCHOOL   N/A         54  39  57  W1      30.23R
#HELIX 3N       N/A         51  34  52  SW5     30.17R
#HOLDMAN 5SE    N/A         53  38  57  CALM    30.19S
#HOLDMAN 6E     N/A         55  36  49  CALM    30.03S
#M-F FERNDALE   N/A         60  34  37  CALM    30.18R
#M-F GROVE ELEM N/A         56  38  51  CALM    30.19R
#M-FREEWATER 5SEN/A         54  39  57  W3      30.20R
#PENDLETON DNTN N/A         58  31  36  CALM    30.19S
#PDT AQUATIC CTRN/A         54  33  45  VRB5    30.23R
#PDT SUNRIDGE   N/A         58  35  42  CALM    30.22S
#PENDLETON 7NW  N/A         58  43  57  CALM    31.98S
#PILOT ROCK 1S  N/A         51  33  50  CALM    30.21R
#PILOT ROCK     N/A         54  36  50  SW2     30.22R
#TUTUILLA       N/A         57  35  43  CALM    30.22R
#UMAPINE 2E     N/A         56  42  59  CALM    30.18R
#WESTON SCHOOL  N/A         52  35  52  CALM    30.16R

$$

ORZ508-290410-
SOUTHERN FOOTHILLS OF THE BLUES

CITY            SKY/WX      TMP DP  RH  WIND    PRES   REMARKS
LEXINGTON       CLEAR       52  32  46  W6      30.25R
#AJAX           N/A         49  29  46  S7      30.35S
#CONDON 5W      N/A         45  31  58  NW8     30.19R
#FOSSIL SCHOOL  N/A         52  32  46  NW2     30.15R
#HEPPNER EOC    N/A         52  34  50  W3      30.17S
#HEPPNER 4NE    N/A         51  33  50  NW5     30.24S
#LEXINGTON 2SE  N/A         55  35  47  CALM    30.19R
#MIKKALO        N/A         51  33  50  W7      30.32R
#OLEX 4N        N/A         53  37  54  W9      30.20R
#RUGGS 5NE      N/A         49  30  48  W3      30.40S
#RUGGS 2SW      N/A         49  36  61  NW3     30.27R

$$

ORZ502-503-290410-
BLUE MOUNTAINS

CITY            SKY/WX      TMP DP  RH  WIND    PRES   REMARKS
MEACHAM         CLEAR       40  28  62  CALM    30.22R
#BATTLE MTN DOT N/A         41  26  55  CALM    N/A
#GREENHORN 9SW  N/A         43  33  67  CALM    26.39R
#HARDMAN 10S    N/A         41  31  67  CALM    30.39S
#LADD CYN SMT   N/A         45  28  51  NW6     N/A
#LADD CREEK ODOTN/A         48  28  46  SW2     N/A
#LONG CREEK HS  N/A         45  36  70  CALM    N/A
#N POWDER DOT   N/A         48  29  47  N8      N/A
#PIKES PEAK     N/A         45  32  60  CALM    27.99S
#TOLLGATE       N/A         34  32  92  CALM    30.04R
#TROY SCHOOL    N/A         51  42  71  CALM    30.07R
#UKIAH          N/A         46  34  63  CALM    30.16R
#WESTON 4E      N/A         47  33  58  CALM    30.24R
$$

ORZ505-290410-
JOHN DAY BASIN

CITY            SKY/WX      TMP DP  RH  WIND    PRES   REMARKS
JOHN DAY        CLOUDY      46  32  58  CALM    30.21S
#ANTELOPE 9ESE  N/A         55  33  43  CALM    N/A
#DAYVILLE SCHOOLN/A         53  30  41  CALM    30.16S
#MITCHELL       N/A         51  31  46  CALM    30.35S
#MITCHELL 8NW   N/A         48  27  44  N1      30.28S
#MONUMENT HS    N/A         55  32  41  CALM    30.15S
#MT. VERNON 5SE N/A         44  31  60  CALM    30.16S
#SPRAY SCHOOL   N/A         52  N/A N/A CALM    N/A
$$

ORZ506-290410-
OCHOCO AND JOHN DAY HIGHLANDS

CITY            SKY/WX      TMP DP  RH  WIND    PRES   REMARKS
#HORSE RIDGE DO N/A         47  17  30  N8      N/A
#PAULINA ODOT   N/A         49  25  39  NE6     N/A
#PINE MTN OBS   N/A         36  21  54  N3      N/A
#PRAIRIE CITY   N/A         47  31  53  CALM    30.36R
#SENECA 9NW     N/A         39  30  70  CALM    30.26S
$$

ORZ049-290410-
GRANDE RONDE VALLEY

CITY            SKY/WX      TMP DP  RH  WIND    PRES   REMARKS
LA GRANDE       CLEAR       46  30  53  CALM    30.21R
#COVE           N/A         48  39  71  CALM    30.22R
#COVE SCHOOL    N/A         48  37  65  CALM    30.21R
#COVE 6NW       N/A         48  36  63  NW1     30.25R
#ELGIN 3N       N/A         49  30  48  CALM    30.17R
#ELGIN 1E       N/A         50  33  52  CALM    N/A
#IMBLER SCHOOL  N/A         45  35  68  CALM    30.16R
#ISLAND CITY 4N N/A         57  45  64  N1      30.32S
#UNION 1S       N/A         47  37  68  CALM    30.24S
$$

ORZ050-290410-
WALLOWA COUNTY

CITY            SKY/WX      TMP DP  RH  WIND    PRES   REMARKS
#IMNAHA SCHOOL  N/A         50  37  61  CALM    30.19S
#IMNAHA 10S     N/A         46  36  68  CALM    30.17S
#JOSEPH 3N      N/A         42  30  62  CALM    30.22R
#JOSEPH 3W      N/A         38  36  92  SW2     30.04R
#LOSTINE        N/A         45  34  65  CALM    30.05R
#LOSTINE 3SE    N/A         43  33  67  W2      30.25R
#MT HOWARD 8000 N/A         25  24  96  CALM    30.15R
#PROMISE 1S     N/A         42  35  76  CALM    30.34R
#WALLOWA SCHOOL N/A         48  33  56  CALM    30.16R



$$



USA.gov is the U.S. government's official web portal to all federal, state and local government web resources and services.